Index of /20260508/WXO-DD/model_rdps/10km/00/074
Name Last modified Size Description
Parent Directory -
20260508T00Z_MSC_RDPS_AbsoluteVorticity_IsbL-0250_RLatLon0.09_PT074H.grib2 2026-05-08 03:03 614K
20260508T00Z_MSC_RDPS_AbsoluteVorticity_IsbL-0500_RLatLon0.09_PT074H.grib2 2026-05-08 03:03 573K
20260508T00Z_MSC_RDPS_AbsoluteVorticity_IsbL-0700_RLatLon0.09_PT074H.grib2 2026-05-08 03:03 623K
20260508T00Z_MSC_RDPS_AbsoluteVorticity_IsbL-0850_RLatLon0.09_PT074H.grib2 2026-05-08 03:03 774K
20260508T00Z_MSC_RDPS_AirTemp_AGL-120m_RLatLon0.09_PT074H.grib2 2026-05-08 03:03 371K
20260508T00Z_MSC_RDPS_AirTemp_AGL-2m_RLatLon0.09_PT074H.grib2 2026-05-08 03:03 624K
20260508T00Z_MSC_RDPS_AirTemp_AGL-40m_RLatLon0.09_PT074H.grib2 2026-05-08 03:03 382K
20260508T00Z_MSC_RDPS_AirTemp_AGL-80m_RLatLon0.09_PT074H.grib2 2026-05-08 03:03 374K
20260508T00Z_MSC_RDPS_AirTemp_IsbL-0001_RLatLon0.09_PT074H.grib2 2026-05-08 03:03 305K
20260508T00Z_MSC_RDPS_AirTemp_IsbL-0005_RLatLon0.09_PT074H.grib2 2026-05-08 03:03 382K
20260508T00Z_MSC_RDPS_AirTemp_IsbL-0010_RLatLon0.09_PT074H.grib2 2026-05-08 03:03 301K
20260508T00Z_MSC_RDPS_AirTemp_IsbL-0020_RLatLon0.09_PT074H.grib2 2026-05-08 03:03 318K
20260508T00Z_MSC_RDPS_AirTemp_IsbL-0030_RLatLon0.09_PT074H.grib2 2026-05-08 03:03 341K
20260508T00Z_MSC_RDPS_AirTemp_IsbL-0050_RLatLon0.09_PT074H.grib2 2026-05-08 03:03 311K
20260508T00Z_MSC_RDPS_AirTemp_IsbL-0100_RLatLon0.09_PT074H.grib2 2026-05-08 03:03 425K
20260508T00Z_MSC_RDPS_AirTemp_IsbL-0150_RLatLon0.09_PT074H.grib2 2026-05-08 03:03 409K
20260508T00Z_MSC_RDPS_AirTemp_IsbL-0175_RLatLon0.09_PT074H.grib2 2026-05-08 03:03 403K
20260508T00Z_MSC_RDPS_AirTemp_IsbL-0200_RLatLon0.09_PT074H.grib2 2026-05-08 03:03 407K
20260508T00Z_MSC_RDPS_AirTemp_IsbL-0225_RLatLon0.09_PT074H.grib2 2026-05-08 03:03 413K
20260508T00Z_MSC_RDPS_AirTemp_IsbL-0250_RLatLon0.09_PT074H.grib2 2026-05-08 03:03 426K
20260508T00Z_MSC_RDPS_AirTemp_IsbL-0275_RLatLon0.09_PT074H.grib2 2026-05-08 03:03 408K
20260508T00Z_MSC_RDPS_AirTemp_IsbL-0300_RLatLon0.09_PT074H.grib2 2026-05-08 03:03 437K
20260508T00Z_MSC_RDPS_AirTemp_IsbL-0350_RLatLon0.09_PT074H.grib2 2026-05-08 03:03 424K
20260508T00Z_MSC_RDPS_AirTemp_IsbL-0400_RLatLon0.09_PT074H.grib2 2026-05-08 03:03 428K
20260508T00Z_MSC_RDPS_AirTemp_IsbL-0450_RLatLon0.09_PT074H.grib2 2026-05-08 03:03 438K
20260508T00Z_MSC_RDPS_AirTemp_IsbL-0500_RLatLon0.09_PT074H.grib2 2026-05-08 03:03 450K
20260508T00Z_MSC_RDPS_AirTemp_IsbL-0550_RLatLon0.09_PT074H.grib2 2026-05-08 03:03 467K
20260508T00Z_MSC_RDPS_AirTemp_IsbL-0600_RLatLon0.09_PT074H.grib2 2026-05-08 03:03 485K
20260508T00Z_MSC_RDPS_AirTemp_IsbL-0650_RLatLon0.09_PT074H.grib2 2026-05-08 03:03 500K
20260508T00Z_MSC_RDPS_AirTemp_IsbL-0700_RLatLon0.09_PT074H.grib2 2026-05-08 03:03 523K
20260508T00Z_MSC_RDPS_AirTemp_IsbL-0750_RLatLon0.09_PT074H.grib2 2026-05-08 03:03 520K
20260508T00Z_MSC_RDPS_AirTemp_IsbL-0800_RLatLon0.09_PT074H.grib2 2026-05-08 03:03 570K
20260508T00Z_MSC_RDPS_AirTemp_IsbL-0850_RLatLon0.09_PT074H.grib2 2026-05-08 03:03 624K
20260508T00Z_MSC_RDPS_AirTemp_IsbL-0875_RLatLon0.09_PT074H.grib2 2026-05-08 03:03 514K
20260508T00Z_MSC_RDPS_AirTemp_IsbL-0900_RLatLon0.09_PT074H.grib2 2026-05-08 03:03 518K
20260508T00Z_MSC_RDPS_AirTemp_IsbL-0925_RLatLon0.09_PT074H.grib2 2026-05-08 03:03 518K
20260508T00Z_MSC_RDPS_AirTemp_IsbL-0950_RLatLon0.09_PT074H.grib2 2026-05-08 03:03 521K
20260508T00Z_MSC_RDPS_AirTemp_IsbL-0970_RLatLon0.09_PT074H.grib2 2026-05-08 03:03 518K
20260508T00Z_MSC_RDPS_AirTemp_IsbL-0985_RLatLon0.09_PT074H.grib2 2026-05-08 03:03 508K
20260508T00Z_MSC_RDPS_AirTemp_IsbL-1000_RLatLon0.09_PT074H.grib2 2026-05-08 03:03 491K
20260508T00Z_MSC_RDPS_AirTemp_IsbL-1015_RLatLon0.09_PT074H.grib2 2026-05-08 03:03 494K
20260508T00Z_MSC_RDPS_Albedo_Sfc_RLatLon0.09_PT074H.grib2 2026-05-08 03:03 160K
20260508T00Z_MSC_RDPS_CAPE_Sfc_RLatLon0.09_PT074H.grib2 2026-05-08 03:03 1.8M
20260508T00Z_MSC_RDPS_CIN_Sfc_RLatLon0.09_PT074H.grib2 2026-05-08 03:03 1.3M
20260508T00Z_MSC_RDPS_CloudWater_EAtm_RLatLon0.09_PT074H.grib2 2026-05-08 03:03 229K
20260508T00Z_MSC_RDPS_ConvectivePrecip-Accum_Sfc_RLatLon0.09_PT074H.grib2 2026-05-08 03:03 1.3M
20260508T00Z_MSC_RDPS_DewPointDepression_AGL-2m_RLatLon0.09_PT074H.grib2 2026-05-08 03:03 400K
20260508T00Z_MSC_RDPS_DewPointDepression_IsbL-0001_RLatLon0.09_PT074H.grib2 2026-05-08 03:03 193
20260508T00Z_MSC_RDPS_DewPointDepression_IsbL-0005_RLatLon0.09_PT074H.grib2 2026-05-08 03:03 193
20260508T00Z_MSC_RDPS_DewPointDepression_IsbL-0010_RLatLon0.09_PT074H.grib2 2026-05-08 03:03 193
20260508T00Z_MSC_RDPS_DewPointDepression_IsbL-0020_RLatLon0.09_PT074H.grib2 2026-05-08 03:03 193
20260508T00Z_MSC_RDPS_DewPointDepression_IsbL-0030_RLatLon0.09_PT074H.grib2 2026-05-08 03:03 193
20260508T00Z_MSC_RDPS_DewPointDepression_IsbL-0050_RLatLon0.09_PT074H.grib2 2026-05-08 03:03 77K
20260508T00Z_MSC_RDPS_DewPointDepression_IsbL-0100_RLatLon0.09_PT074H.grib2 2026-05-08 03:03 111K
20260508T00Z_MSC_RDPS_DewPointDepression_IsbL-0150_RLatLon0.09_PT074H.grib2 2026-05-08 03:03 149K
20260508T00Z_MSC_RDPS_DewPointDepression_IsbL-0175_RLatLon0.09_PT074H.grib2 2026-05-08 03:03 169K
20260508T00Z_MSC_RDPS_DewPointDepression_IsbL-0200_RLatLon0.09_PT074H.grib2 2026-05-08 03:03 213K
20260508T00Z_MSC_RDPS_DewPointDepression_IsbL-0225_RLatLon0.09_PT074H.grib2 2026-05-08 03:03 263K
20260508T00Z_MSC_RDPS_DewPointDepression_IsbL-0250_RLatLon0.09_PT074H.grib2 2026-05-08 03:03 303K
20260508T00Z_MSC_RDPS_DewPointDepression_IsbL-0275_RLatLon0.09_PT074H.grib2 2026-05-08 03:03 314K
20260508T00Z_MSC_RDPS_DewPointDepression_IsbL-0300_RLatLon0.09_PT074H.grib2 2026-05-08 03:03 329K
20260508T00Z_MSC_RDPS_DewPointDepression_IsbL-0350_RLatLon0.09_PT074H.grib2 2026-05-08 03:03 335K
20260508T00Z_MSC_RDPS_DewPointDepression_IsbL-0400_RLatLon0.09_PT074H.grib2 2026-05-08 03:03 347K
20260508T00Z_MSC_RDPS_DewPointDepression_IsbL-0450_RLatLon0.09_PT074H.grib2 2026-05-08 03:03 356K
20260508T00Z_MSC_RDPS_DewPointDepression_IsbL-0500_RLatLon0.09_PT074H.grib2 2026-05-08 03:03 360K
20260508T00Z_MSC_RDPS_DewPointDepression_IsbL-0550_RLatLon0.09_PT074H.grib2 2026-05-08 03:03 370K
20260508T00Z_MSC_RDPS_DewPointDepression_IsbL-0600_RLatLon0.09_PT074H.grib2 2026-05-08 03:03 382K
20260508T00Z_MSC_RDPS_DewPointDepression_IsbL-0650_RLatLon0.09_PT074H.grib2 2026-05-08 03:03 391K
20260508T00Z_MSC_RDPS_DewPointDepression_IsbL-0700_RLatLon0.09_PT074H.grib2 2026-05-08 03:03 402K
20260508T00Z_MSC_RDPS_DewPointDepression_IsbL-0750_RLatLon0.09_PT074H.grib2 2026-05-08 03:03 414K
20260508T00Z_MSC_RDPS_DewPointDepression_IsbL-0800_RLatLon0.09_PT074H.grib2 2026-05-08 03:03 445K
20260508T00Z_MSC_RDPS_DewPointDepression_IsbL-0850_RLatLon0.09_PT074H.grib2 2026-05-08 03:03 467K
20260508T00Z_MSC_RDPS_DewPointDepression_IsbL-0875_RLatLon0.09_PT074H.grib2 2026-05-08 03:03 461K
20260508T00Z_MSC_RDPS_DewPointDepression_IsbL-0900_RLatLon0.09_PT074H.grib2 2026-05-08 03:03 448K
20260508T00Z_MSC_RDPS_DewPointDepression_IsbL-0925_RLatLon0.09_PT074H.grib2 2026-05-08 03:03 439K
20260508T00Z_MSC_RDPS_DewPointDepression_IsbL-0950_RLatLon0.09_PT074H.grib2 2026-05-08 03:03 434K
20260508T00Z_MSC_RDPS_DewPointDepression_IsbL-0970_RLatLon0.09_PT074H.grib2 2026-05-08 03:03 429K
20260508T00Z_MSC_RDPS_DewPointDepression_IsbL-0985_RLatLon0.09_PT074H.grib2 2026-05-08 03:03 424K
20260508T00Z_MSC_RDPS_DewPointDepression_IsbL-1000_RLatLon0.09_PT074H.grib2 2026-05-08 03:03 419K
20260508T00Z_MSC_RDPS_DewPointDepression_IsbL-1015_RLatLon0.09_PT074H.grib2 2026-05-08 03:03 407K
20260508T00Z_MSC_RDPS_DewPoint_AGL-2m_RLatLon0.09_PT074H.grib2 2026-05-08 03:03 389K
20260508T00Z_MSC_RDPS_DownwardLongwaveRadiationFlux-Accum_Sfc_RLatLon0.09_PT074H.grib2 2026-05-08 03:03 430K
20260508T00Z_MSC_RDPS_DownwardShortwaveRadiationFlux-Accum_NTAtm_RLatLon0.09_PT074H.grib2 2026-05-08 03:03 133K
20260508T00Z_MSC_RDPS_DownwardShortwaveRadiationFlux-Accum_Sfc_RLatLon0.09_PT074H.grib2 2026-05-08 03:03 636K
20260508T00Z_MSC_RDPS_FreezingRain-Accum1h_Sfc_RLatLon0.09_PT074H.grib2 2026-05-08 03:03 33K
20260508T00Z_MSC_RDPS_FreezingRain-Accum_Sfc_RLatLon0.09_PT074H.grib2 2026-05-08 03:03 186K
20260508T00Z_MSC_RDPS_GeopotentialHeight_IsbL-0001_RLatLon0.09_PT074H.grib2 2026-05-08 03:03 244K
20260508T00Z_MSC_RDPS_GeopotentialHeight_IsbL-0005_RLatLon0.09_PT074H.grib2 2026-05-08 03:03 307K
20260508T00Z_MSC_RDPS_GeopotentialHeight_IsbL-0010_RLatLon0.09_PT074H.grib2 2026-05-08 03:03 308K
20260508T00Z_MSC_RDPS_GeopotentialHeight_IsbL-0020_RLatLon0.09_PT074H.grib2 2026-05-08 03:03 404K
20260508T00Z_MSC_RDPS_GeopotentialHeight_IsbL-0030_RLatLon0.09_PT074H.grib2 2026-05-08 03:03 310K
20260508T00Z_MSC_RDPS_GeopotentialHeight_IsbL-0050_RLatLon0.09_PT074H.grib2 2026-05-08 03:03 310K
20260508T00Z_MSC_RDPS_GeopotentialHeight_IsbL-0100_RLatLon0.09_PT074H.grib2 2026-05-08 03:03 285K
20260508T00Z_MSC_RDPS_GeopotentialHeight_IsbL-0150_RLatLon0.09_PT074H.grib2 2026-05-08 03:03 228K
20260508T00Z_MSC_RDPS_GeopotentialHeight_IsbL-0175_RLatLon0.09_PT074H.grib2 2026-05-08 03:03 230K
20260508T00Z_MSC_RDPS_GeopotentialHeight_IsbL-0200_RLatLon0.09_PT074H.grib2 2026-05-08 03:03 231K
20260508T00Z_MSC_RDPS_GeopotentialHeight_IsbL-0225_RLatLon0.09_PT074H.grib2 2026-05-08 03:03 233K
20260508T00Z_MSC_RDPS_GeopotentialHeight_IsbL-0250_RLatLon0.09_PT074H.grib2 2026-05-08 03:03 265K
20260508T00Z_MSC_RDPS_GeopotentialHeight_IsbL-0275_RLatLon0.09_PT074H.grib2 2026-05-08 03:03 234K
20260508T00Z_MSC_RDPS_GeopotentialHeight_IsbL-0300_RLatLon0.09_PT074H.grib2 2026-05-08 03:03 235K
20260508T00Z_MSC_RDPS_GeopotentialHeight_IsbL-0350_RLatLon0.09_PT074H.grib2 2026-05-08 03:03 231K
20260508T00Z_MSC_RDPS_GeopotentialHeight_IsbL-0400_RLatLon0.09_PT074H.grib2 2026-05-08 03:03 227K
20260508T00Z_MSC_RDPS_GeopotentialHeight_IsbL-0450_RLatLon0.09_PT074H.grib2 2026-05-08 03:03 295K
20260508T00Z_MSC_RDPS_GeopotentialHeight_IsbL-0500_RLatLon0.09_PT074H.grib2 2026-05-08 03:03 290K
20260508T00Z_MSC_RDPS_GeopotentialHeight_IsbL-0550_RLatLon0.09_PT074H.grib2 2026-05-08 03:03 286K
20260508T00Z_MSC_RDPS_GeopotentialHeight_IsbL-0600_RLatLon0.09_PT074H.grib2 2026-05-08 03:03 283K
20260508T00Z_MSC_RDPS_GeopotentialHeight_IsbL-0650_RLatLon0.09_PT074H.grib2 2026-05-08 03:03 254K
20260508T00Z_MSC_RDPS_GeopotentialHeight_IsbL-0700_RLatLon0.09_PT074H.grib2 2026-05-08 03:03 254K
20260508T00Z_MSC_RDPS_GeopotentialHeight_IsbL-0750_RLatLon0.09_PT074H.grib2 2026-05-08 03:03 255K
20260508T00Z_MSC_RDPS_GeopotentialHeight_IsbL-0800_RLatLon0.09_PT074H.grib2 2026-05-08 03:03 343K
20260508T00Z_MSC_RDPS_GeopotentialHeight_IsbL-0850_RLatLon0.09_PT074H.grib2 2026-05-08 03:03 352K
20260508T00Z_MSC_RDPS_GeopotentialHeight_IsbL-0875_RLatLon0.09_PT074H.grib2 2026-05-08 03:03 354K
20260508T00Z_MSC_RDPS_GeopotentialHeight_IsbL-0900_RLatLon0.09_PT074H.grib2 2026-05-08 03:03 358K
20260508T00Z_MSC_RDPS_GeopotentialHeight_IsbL-0925_RLatLon0.09_PT074H.grib2 2026-05-08 03:03 362K
20260508T00Z_MSC_RDPS_GeopotentialHeight_IsbL-0950_RLatLon0.09_PT074H.grib2 2026-05-08 03:03 364K
20260508T00Z_MSC_RDPS_GeopotentialHeight_IsbL-0970_RLatLon0.09_PT074H.grib2 2026-05-08 03:03 368K
20260508T00Z_MSC_RDPS_GeopotentialHeight_IsbL-0985_RLatLon0.09_PT074H.grib2 2026-05-08 03:03 376K
20260508T00Z_MSC_RDPS_GeopotentialHeight_IsbL-1000_RLatLon0.09_PT074H.grib2 2026-05-08 03:03 388K
20260508T00Z_MSC_RDPS_GeopotentialHeight_IsbL-1015_RLatLon0.09_PT074H.grib2 2026-05-08 03:03 403K
20260508T00Z_MSC_RDPS_HighLowPressure_MSL_RLatLon0.09_PT074H.json 2026-05-08 02:55 21K
20260508T00Z_MSC_RDPS_Humidex_Sfc_RLatLon0.09_PT074H.grib2 2026-05-08 03:03 2.4M
20260508T00Z_MSC_RDPS_IcePellets-Accum1h_Sfc_RLatLon0.09_PT074H.grib2 2026-05-08 03:03 8.8K
20260508T00Z_MSC_RDPS_IcePellets-Accum_Sfc_RLatLon0.09_PT074H.grib2 2026-05-08 03:03 41K
20260508T00Z_MSC_RDPS_KIndex_Sfc_RLatLon0.09_PT074H.grib2 2026-05-08 03:03 2.5M
20260508T00Z_MSC_RDPS_LatentHeatNetFlux_Sfc_RLatLon0.09_PT074H.grib2 2026-05-08 03:03 338K
20260508T00Z_MSC_RDPS_LiftedIndex-MU-VT_IsbL-0500_RLatLon0.09_PT074H.grib2 2026-05-08 03:03 2.4M
20260508T00Z_MSC_RDPS_NetLongwaveRadiationFlux-Accum_Sfc_RLatLon0.09_PT074H.grib2 2026-05-08 03:03 480K
20260508T00Z_MSC_RDPS_NetShortwaveRadiationFlux-Accum_Sfc_RLatLon0.09_PT074H.grib2 2026-05-08 03:03 638K
20260508T00Z_MSC_RDPS_PlanetaryBoundaryLayerHeight_Sfc_RLatLon0.09_PT074H.grib2 2026-05-08 03:03 1.0M
20260508T00Z_MSC_RDPS_Precip-Accum1h_Sfc_RLatLon0.09_PT074H.grib2 2026-05-08 03:03 1.2M
20260508T00Z_MSC_RDPS_Precip-Accum_Sfc_RLatLon0.09_PT074H.grib2 2026-05-08 03:03 2.1M
20260508T00Z_MSC_RDPS_PrecipRate_Sfc_RLatLon0.09_PT074H.grib2 2026-05-08 03:03 183K
20260508T00Z_MSC_RDPS_PrecipType-Instant_Sfc_RLatLon0.09_PT074H.grib2 2026-05-08 03:03 607K
20260508T00Z_MSC_RDPS_Pressure-Trend3h_Sfc_RLatLon0.09_PT074H.grib2 2026-05-08 03:03 1.2M
20260508T00Z_MSC_RDPS_Pressure_MSL_RLatLon0.09_PT074H.grib2 2026-05-08 03:03 325K
20260508T00Z_MSC_RDPS_Pressure_PVU-1.5_RLatLon0.09_PT074H.grib2 2026-05-08 03:03 2.5M
20260508T00Z_MSC_RDPS_Pressure_PVU-1_RLatLon0.09_PT074H.grib2 2026-05-08 03:03 2.4M
20260508T00Z_MSC_RDPS_Pressure_PVU-2_RLatLon0.09_PT074H.grib2 2026-05-08 03:03 2.4M
20260508T00Z_MSC_RDPS_Pressure_Sfc_RLatLon0.09_PT074H.grib2 2026-05-08 03:03 497K
20260508T00Z_MSC_RDPS_RadiativeTemp_Sfc_RLatLon0.09_PT074H.grib2 2026-05-08 03:03 308K
20260508T00Z_MSC_RDPS_Rain-Accum1h_Sfc_RLatLon0.09_PT074H.grib2 2026-05-08 03:03 647K
20260508T00Z_MSC_RDPS_Rain-Accum_Sfc_RLatLon0.09_PT074H.grib2 2026-05-08 03:03 1.7M
20260508T00Z_MSC_RDPS_RelativeHumidity_AGL-2m_RLatLon0.09_PT074H.grib2 2026-05-08 03:03 1.0M
20260508T00Z_MSC_RDPS_RelativeHumidity_IsbL-0010_RLatLon0.09_PT074H.grib2 2026-05-08 03:03 562K
20260508T00Z_MSC_RDPS_RelativeHumidity_IsbL-0020_RLatLon0.09_PT074H.grib2 2026-05-08 03:03 624K
20260508T00Z_MSC_RDPS_RelativeHumidity_IsbL-0030_RLatLon0.09_PT074H.grib2 2026-05-08 03:03 622K
20260508T00Z_MSC_RDPS_RelativeHumidity_IsbL-0050_RLatLon0.09_PT074H.grib2 2026-05-08 03:03 353K
20260508T00Z_MSC_RDPS_RelativeHumidity_IsbL-0100_RLatLon0.09_PT074H.grib2 2026-05-08 03:03 276K
20260508T00Z_MSC_RDPS_RelativeHumidity_IsbL-0150_RLatLon0.09_PT074H.grib2 2026-05-08 03:03 420K
20260508T00Z_MSC_RDPS_RelativeHumidity_IsbL-0175_RLatLon0.09_PT074H.grib2 2026-05-08 03:03 475K
20260508T00Z_MSC_RDPS_RelativeHumidity_IsbL-0200_RLatLon0.09_PT074H.grib2 2026-05-08 03:03 544K
20260508T00Z_MSC_RDPS_RelativeHumidity_IsbL-0225_RLatLon0.09_PT074H.grib2 2026-05-08 03:03 621K
20260508T00Z_MSC_RDPS_RelativeHumidity_IsbL-0250_RLatLon0.09_PT074H.grib2 2026-05-08 03:03 704K
20260508T00Z_MSC_RDPS_RelativeHumidity_IsbL-0275_RLatLon0.09_PT074H.grib2 2026-05-08 03:03 734K
20260508T00Z_MSC_RDPS_RelativeHumidity_IsbL-0300_RLatLon0.09_PT074H.grib2 2026-05-08 03:03 773K
20260508T00Z_MSC_RDPS_RelativeHumidity_IsbL-0350_RLatLon0.09_PT074H.grib2 2026-05-08 03:03 785K
20260508T00Z_MSC_RDPS_RelativeHumidity_IsbL-0400_RLatLon0.09_PT074H.grib2 2026-05-08 03:03 804K
20260508T00Z_MSC_RDPS_RelativeHumidity_IsbL-0450_RLatLon0.09_PT074H.grib2 2026-05-08 03:03 818K
20260508T00Z_MSC_RDPS_RelativeHumidity_IsbL-0500_RLatLon0.09_PT074H.grib2 2026-05-08 03:03 823K
20260508T00Z_MSC_RDPS_RelativeHumidity_IsbL-0550_RLatLon0.09_PT074H.grib2 2026-05-08 03:03 834K
20260508T00Z_MSC_RDPS_RelativeHumidity_IsbL-0600_RLatLon0.09_PT074H.grib2 2026-05-08 03:03 853K
20260508T00Z_MSC_RDPS_RelativeHumidity_IsbL-0650_RLatLon0.09_PT074H.grib2 2026-05-08 03:03 868K
20260508T00Z_MSC_RDPS_RelativeHumidity_IsbL-0700_RLatLon0.09_PT074H.grib2 2026-05-08 03:03 899K
20260508T00Z_MSC_RDPS_RelativeHumidity_IsbL-0750_RLatLon0.09_PT074H.grib2 2026-05-08 03:03 932K
20260508T00Z_MSC_RDPS_RelativeHumidity_IsbL-0800_RLatLon0.09_PT074H.grib2 2026-05-08 03:03 1.0M
20260508T00Z_MSC_RDPS_RelativeHumidity_IsbL-0850_RLatLon0.09_PT074H.grib2 2026-05-08 03:03 1.0M
20260508T00Z_MSC_RDPS_RelativeHumidity_IsbL-0875_RLatLon0.09_PT074H.grib2 2026-05-08 03:03 1.0M
20260508T00Z_MSC_RDPS_RelativeHumidity_IsbL-0900_RLatLon0.09_PT074H.grib2 2026-05-08 03:03 1.0M
20260508T00Z_MSC_RDPS_RelativeHumidity_IsbL-0925_RLatLon0.09_PT074H.grib2 2026-05-08 03:03 1.0M
20260508T00Z_MSC_RDPS_RelativeHumidity_IsbL-0950_RLatLon0.09_PT074H.grib2 2026-05-08 03:03 1.0M
20260508T00Z_MSC_RDPS_RelativeHumidity_IsbL-0970_RLatLon0.09_PT074H.grib2 2026-05-08 03:03 1.0M
20260508T00Z_MSC_RDPS_RelativeHumidity_IsbL-0985_RLatLon0.09_PT074H.grib2 2026-05-08 03:03 1.0M
20260508T00Z_MSC_RDPS_RelativeHumidity_IsbL-1000_RLatLon0.09_PT074H.grib2 2026-05-08 03:03 1.0M
20260508T00Z_MSC_RDPS_RelativeHumidity_IsbL-1015_RLatLon0.09_PT074H.grib2 2026-05-08 03:03 1.0M
20260508T00Z_MSC_RDPS_Runoff-Accum_Sfc_RLatLon0.09_PT074H.grib2 2026-05-08 03:03 48K
20260508T00Z_MSC_RDPS_SWEATIndex_Sfc_RLatLon0.09_PT074H.grib2 2026-05-08 03:03 2.5M
20260508T00Z_MSC_RDPS_SeeingIndex_EAtm_RLatLon0.09_PT074H.grib2 2026-05-08 03:03 1.0M
20260508T00Z_MSC_RDPS_SensibleHeatNetFlux_Sfc_RLatLon0.09_PT074H.grib2 2026-05-08 03:03 293K
20260508T00Z_MSC_RDPS_ShowalterIndex_IsbL-0500_RLatLon0.09_PT074H.grib2 2026-05-08 03:03 2.6M
20260508T00Z_MSC_RDPS_SkyTransparencyIndex_EAtm_RLatLon0.09_PT074H.grib2 2026-05-08 03:03 703K
20260508T00Z_MSC_RDPS_Snow-Accum1h_Sfc_RLatLon0.09_PT074H.grib2 2026-05-08 03:03 410K
20260508T00Z_MSC_RDPS_Snow-Accum_Sfc_RLatLon0.09_PT074H.grib2 2026-05-08 03:03 685K
20260508T00Z_MSC_RDPS_SnowDensity_Sfc_RLatLon0.09_PT074H.grib2 2026-05-08 03:03 171K
20260508T00Z_MSC_RDPS_SnowDepth_Sfc_RLatLon0.09_PT074H.grib2 2026-05-08 03:03 618K
20260508T00Z_MSC_RDPS_SoilTemp_DBS-0to10cm_RLatLon0.09_PT074H.grib2 2026-05-08 03:03 246K
20260508T00Z_MSC_RDPS_SoilTemp_Sfc_RLatLon0.09_PT074H.grib2 2026-05-08 03:03 264K
20260508T00Z_MSC_RDPS_SoilVolumetricIceContent_Sfc_RLatLon0.09_PT074H.grib2 2026-05-08 03:03 142K
20260508T00Z_MSC_RDPS_SoilVolumetricWaterContent_DBS-0to10cm_RLatLon0.09_PT074H.grib2 2026-05-08 03:03 294K
20260508T00Z_MSC_RDPS_SoilVolumetricWaterContent_DBS-0to1cm_RLatLon0.09_PT074H.grib2 2026-05-08 03:03 344K
20260508T00Z_MSC_RDPS_SpecificHumidity_AGL-120m_RLatLon0.09_PT074H.grib2 2026-05-08 03:03 495K
20260508T00Z_MSC_RDPS_SpecificHumidity_AGL-2m_RLatLon0.09_PT074H.grib2 2026-05-08 03:03 670K
20260508T00Z_MSC_RDPS_SpecificHumidity_AGL-40m_RLatLon0.09_PT074H.grib2 2026-05-08 03:03 502K
20260508T00Z_MSC_RDPS_SpecificHumidity_AGL-80m_RLatLon0.09_PT074H.grib2 2026-05-08 03:03 497K
20260508T00Z_MSC_RDPS_SpecificHumidity_IsbL-0001_RLatLon0.09_PT074H.grib2 2026-05-08 03:03 359K
20260508T00Z_MSC_RDPS_SpecificHumidity_IsbL-0005_RLatLon0.09_PT074H.grib2 2026-05-08 03:03 361K
20260508T00Z_MSC_RDPS_SpecificHumidity_IsbL-0010_RLatLon0.09_PT074H.grib2 2026-05-08 03:03 387K
20260508T00Z_MSC_RDPS_SpecificHumidity_IsbL-0020_RLatLon0.09_PT074H.grib2 2026-05-08 03:03 486K
20260508T00Z_MSC_RDPS_SpecificHumidity_IsbL-0030_RLatLon0.09_PT074H.grib2 2026-05-08 03:03 366K
20260508T00Z_MSC_RDPS_SpecificHumidity_IsbL-0050_RLatLon0.09_PT074H.grib2 2026-05-08 03:03 474K
20260508T00Z_MSC_RDPS_SpecificHumidity_IsbL-0100_RLatLon0.09_PT074H.grib2 2026-05-08 03:03 334K
20260508T00Z_MSC_RDPS_SpecificHumidity_IsbL-0150_RLatLon0.09_PT074H.grib2 2026-05-08 03:03 485K
20260508T00Z_MSC_RDPS_SpecificHumidity_IsbL-0175_RLatLon0.09_PT074H.grib2 2026-05-08 03:03 437K
20260508T00Z_MSC_RDPS_SpecificHumidity_IsbL-0200_RLatLon0.09_PT074H.grib2 2026-05-08 03:03 471K
20260508T00Z_MSC_RDPS_SpecificHumidity_IsbL-0225_RLatLon0.09_PT074H.grib2 2026-05-08 03:03 464K
20260508T00Z_MSC_RDPS_SpecificHumidity_IsbL-0250_RLatLon0.09_PT074H.grib2 2026-05-08 03:03 533K
20260508T00Z_MSC_RDPS_SpecificHumidity_IsbL-0275_RLatLon0.09_PT074H.grib2 2026-05-08 03:03 493K
20260508T00Z_MSC_RDPS_SpecificHumidity_IsbL-0300_RLatLon0.09_PT074H.grib2 2026-05-08 03:03 464K
20260508T00Z_MSC_RDPS_SpecificHumidity_IsbL-0350_RLatLon0.09_PT074H.grib2 2026-05-08 03:03 455K
20260508T00Z_MSC_RDPS_SpecificHumidity_IsbL-0400_RLatLon0.09_PT074H.grib2 2026-05-08 03:03 542K
20260508T00Z_MSC_RDPS_SpecificHumidity_IsbL-0450_RLatLon0.09_PT074H.grib2 2026-05-08 03:03 484K
20260508T00Z_MSC_RDPS_SpecificHumidity_IsbL-0500_RLatLon0.09_PT074H.grib2 2026-05-08 03:03 537K
20260508T00Z_MSC_RDPS_SpecificHumidity_IsbL-0550_RLatLon0.09_PT074H.grib2 2026-05-08 03:03 607K
20260508T00Z_MSC_RDPS_SpecificHumidity_IsbL-0600_RLatLon0.09_PT074H.grib2 2026-05-08 03:03 661K
20260508T00Z_MSC_RDPS_SpecificHumidity_IsbL-0650_RLatLon0.09_PT074H.grib2 2026-05-08 03:03 581K
20260508T00Z_MSC_RDPS_SpecificHumidity_IsbL-0700_RLatLon0.09_PT074H.grib2 2026-05-08 03:03 625K
20260508T00Z_MSC_RDPS_SpecificHumidity_IsbL-0750_RLatLon0.09_PT074H.grib2 2026-05-08 03:03 676K
20260508T00Z_MSC_RDPS_SpecificHumidity_IsbL-0800_RLatLon0.09_PT074H.grib2 2026-05-08 03:03 756K
20260508T00Z_MSC_RDPS_SpecificHumidity_IsbL-0850_RLatLon0.09_PT074H.grib2 2026-05-08 03:03 821K
20260508T00Z_MSC_RDPS_SpecificHumidity_IsbL-0875_RLatLon0.09_PT074H.grib2 2026-05-08 03:03 839K
20260508T00Z_MSC_RDPS_SpecificHumidity_IsbL-0900_RLatLon0.09_PT074H.grib2 2026-05-08 03:03 708K
20260508T00Z_MSC_RDPS_SpecificHumidity_IsbL-0925_RLatLon0.09_PT074H.grib2 2026-05-08 03:03 710K
20260508T00Z_MSC_RDPS_SpecificHumidity_IsbL-0950_RLatLon0.09_PT074H.grib2 2026-05-08 03:03 714K
20260508T00Z_MSC_RDPS_SpecificHumidity_IsbL-0970_RLatLon0.09_PT074H.grib2 2026-05-08 03:03 709K
20260508T00Z_MSC_RDPS_SpecificHumidity_IsbL-0985_RLatLon0.09_PT074H.grib2 2026-05-08 03:03 701K
20260508T00Z_MSC_RDPS_SpecificHumidity_IsbL-1000_RLatLon0.09_PT074H.grib2 2026-05-08 03:03 694K
20260508T00Z_MSC_RDPS_SpecificHumidity_IsbL-1015_RLatLon0.09_PT074H.grib2 2026-05-08 03:03 685K
20260508T00Z_MSC_RDPS_SpecificHumidity_Sfc_RLatLon0.09_PT074H.grib2 2026-05-08 03:03 338K
20260508T00Z_MSC_RDPS_StormRelativeHelicity_EtaL-10000_RLatLon0.09_PT074H.grib2 2026-05-08 03:03 1.1M
20260508T00Z_MSC_RDPS_StormSeverityIndex_EtaL-10000_RLatLon0.09_PT074H.grib2 2026-05-08 03:03 1.2M
20260508T00Z_MSC_RDPS_Thickness_IsbL-0850to0700_RLatLon0.09_PT074H.grib2 2026-05-08 03:03 246K
20260508T00Z_MSC_RDPS_Thickness_IsbL-1000to0500_RLatLon0.09_PT074H.grib2 2026-05-08 03:03 192K
20260508T00Z_MSC_RDPS_Thickness_IsbL-1000to0850_RLatLon0.09_PT074H.grib2 2026-05-08 03:03 257K
20260508T00Z_MSC_RDPS_TotalCloudCover_Sfc_RLatLon0.09_PT074H.grib2 2026-05-08 03:03 668K
20260508T00Z_MSC_RDPS_TotalTotalsIndex_Sfc_RLatLon0.09_PT074H.grib2 2026-05-08 03:03 2.5M
20260508T00Z_MSC_RDPS_UVIndex-ClearSky_Sfc_RLatLon0.09_PT074H.grib2 2026-05-08 03:03 128K
20260508T00Z_MSC_RDPS_UVIndex_Sfc_RLatLon0.09_PT074H.grib2 2026-05-08 03:03 267K
20260508T00Z_MSC_RDPS_UpwardLongwaveRadiationFlux_NTAtm_RLatLon0.09_PT074H.grib2 2026-05-08 03:03 385K
20260508T00Z_MSC_RDPS_UpwardShortwaveRadiationFlux_NTAtm_RLatLon0.09_PT074H.grib2 2026-05-08 03:03 248K
20260508T00Z_MSC_RDPS_VerticalVelocity_IsbL-0250_RLatLon0.09_PT074H.grib2 2026-05-08 03:03 566K
20260508T00Z_MSC_RDPS_VerticalVelocity_IsbL-0500_RLatLon0.09_PT074H.grib2 2026-05-08 03:03 541K
20260508T00Z_MSC_RDPS_VerticalVelocity_IsbL-0700_RLatLon0.09_PT074H.grib2 2026-05-08 03:03 594K
20260508T00Z_MSC_RDPS_VerticalVelocity_IsbL-0850_RLatLon0.09_PT074H.grib2 2026-05-08 03:03 708K
20260508T00Z_MSC_RDPS_VerticalWindShear_EtaL-6500_RLatLon0.09_PT074H.grib2 2026-05-08 03:03 1.2M
20260508T00Z_MSC_RDPS_WindChill_Sfc_RLatLon0.09_PT074H.grib2 2026-05-08 03:03 1.2M
20260508T00Z_MSC_RDPS_WindDir_AGL-10m_RLatLon0.09_PT074H.grib2 2026-05-08 03:03 952K
20260508T00Z_MSC_RDPS_WindDir_AGL-120m_RLatLon0.09_PT074H.grib2 2026-05-08 03:03 597K
20260508T00Z_MSC_RDPS_WindDir_AGL-40m_RLatLon0.09_PT074H.grib2 2026-05-08 03:03 625K
20260508T00Z_MSC_RDPS_WindDir_AGL-80m_RLatLon0.09_PT074H.grib2 2026-05-08 03:03 608K
20260508T00Z_MSC_RDPS_WindDir_IsbL-0001_RLatLon0.09_PT074H.grib2 2026-05-08 03:03 282K
20260508T00Z_MSC_RDPS_WindDir_IsbL-0005_RLatLon0.09_PT074H.grib2 2026-05-08 03:03 361K
20260508T00Z_MSC_RDPS_WindDir_IsbL-0010_RLatLon0.09_PT074H.grib2 2026-05-08 03:03 401K
20260508T00Z_MSC_RDPS_WindDir_IsbL-0020_RLatLon0.09_PT074H.grib2 2026-05-08 03:03 442K
20260508T00Z_MSC_RDPS_WindDir_IsbL-0030_RLatLon0.09_PT074H.grib2 2026-05-08 03:03 440K
20260508T00Z_MSC_RDPS_WindDir_IsbL-0050_RLatLon0.09_PT074H.grib2 2026-05-08 03:03 436K
20260508T00Z_MSC_RDPS_WindDir_IsbL-0100_RLatLon0.09_PT074H.grib2 2026-05-08 03:03 420K
20260508T00Z_MSC_RDPS_WindDir_IsbL-0150_RLatLon0.09_PT074H.grib2 2026-05-08 03:03 418K
20260508T00Z_MSC_RDPS_WindDir_IsbL-0175_RLatLon0.09_PT074H.grib2 2026-05-08 03:03 437K
20260508T00Z_MSC_RDPS_WindDir_IsbL-0200_RLatLon0.09_PT074H.grib2 2026-05-08 03:03 454K
20260508T00Z_MSC_RDPS_WindDir_IsbL-0225_RLatLon0.09_PT074H.grib2 2026-05-08 03:03 465K
20260508T00Z_MSC_RDPS_WindDir_IsbL-0250_RLatLon0.09_PT074H.grib2 2026-05-08 03:03 467K
20260508T00Z_MSC_RDPS_WindDir_IsbL-0275_RLatLon0.09_PT074H.grib2 2026-05-08 03:03 490K
20260508T00Z_MSC_RDPS_WindDir_IsbL-0300_RLatLon0.09_PT074H.grib2 2026-05-08 03:03 491K
20260508T00Z_MSC_RDPS_WindDir_IsbL-0350_RLatLon0.09_PT074H.grib2 2026-05-08 03:03 511K
20260508T00Z_MSC_RDPS_WindDir_IsbL-0400_RLatLon0.09_PT074H.grib2 2026-05-08 03:03 530K
20260508T00Z_MSC_RDPS_WindDir_IsbL-0450_RLatLon0.09_PT074H.grib2 2026-05-08 03:03 552K
20260508T00Z_MSC_RDPS_WindDir_IsbL-0500_RLatLon0.09_PT074H.grib2 2026-05-08 03:03 572K
20260508T00Z_MSC_RDPS_WindDir_IsbL-0550_RLatLon0.09_PT074H.grib2 2026-05-08 03:03 581K
20260508T00Z_MSC_RDPS_WindDir_IsbL-0600_RLatLon0.09_PT074H.grib2 2026-05-08 03:03 601K
20260508T00Z_MSC_RDPS_WindDir_IsbL-0650_RLatLon0.09_PT074H.grib2 2026-05-08 03:03 637K
20260508T00Z_MSC_RDPS_WindDir_IsbL-0700_RLatLon0.09_PT074H.grib2 2026-05-08 03:03 677K
20260508T00Z_MSC_RDPS_WindDir_IsbL-0750_RLatLon0.09_PT074H.grib2 2026-05-08 03:03 722K
20260508T00Z_MSC_RDPS_WindDir_IsbL-0800_RLatLon0.09_PT074H.grib2 2026-05-08 03:03 784K
20260508T00Z_MSC_RDPS_WindDir_IsbL-0850_RLatLon0.09_PT074H.grib2 2026-05-08 03:03 850K
20260508T00Z_MSC_RDPS_WindDir_IsbL-0875_RLatLon0.09_PT074H.grib2 2026-05-08 03:03 871K
20260508T00Z_MSC_RDPS_WindDir_IsbL-0900_RLatLon0.09_PT074H.grib2 2026-05-08 03:03 887K
20260508T00Z_MSC_RDPS_WindDir_IsbL-0925_RLatLon0.09_PT074H.grib2 2026-05-08 03:03 898K
20260508T00Z_MSC_RDPS_WindDir_IsbL-0950_RLatLon0.09_PT074H.grib2 2026-05-08 03:03 901K
20260508T00Z_MSC_RDPS_WindDir_IsbL-0970_RLatLon0.09_PT074H.grib2 2026-05-08 03:03 903K
20260508T00Z_MSC_RDPS_WindDir_IsbL-0985_RLatLon0.09_PT074H.grib2 2026-05-08 03:03 912K
20260508T00Z_MSC_RDPS_WindDir_IsbL-1000_RLatLon0.09_PT074H.grib2 2026-05-08 03:03 930K
20260508T00Z_MSC_RDPS_WindDir_IsbL-1015_RLatLon0.09_PT074H.grib2 2026-05-08 03:03 946K
20260508T00Z_MSC_RDPS_WindGust-Max_AGL-10m_RLatLon0.09_PT074H.grib2 2026-05-08 03:03 1.0M
20260508T00Z_MSC_RDPS_WindGust-Min_AGL-10m_RLatLon0.09_PT074H.grib2 2026-05-08 03:03 972K
20260508T00Z_MSC_RDPS_WindGust_AGL-10m_RLatLon0.09_PT074H.grib2 2026-05-08 03:03 1.0M
20260508T00Z_MSC_RDPS_WindSpeed_AGL-10m_RLatLon0.09_PT074H.grib2 2026-05-08 03:03 833K
20260508T00Z_MSC_RDPS_WindSpeed_AGL-120m_RLatLon0.09_PT074H.grib2 2026-05-08 03:03 547K
20260508T00Z_MSC_RDPS_WindSpeed_AGL-40m_RLatLon0.09_PT074H.grib2 2026-05-08 03:03 539K
20260508T00Z_MSC_RDPS_WindSpeed_AGL-80m_RLatLon0.09_PT074H.grib2 2026-05-08 03:03 536K
20260508T00Z_MSC_RDPS_WindSpeed_IsbL-0001_RLatLon0.09_PT074H.grib2 2026-05-08 03:03 254K
20260508T00Z_MSC_RDPS_WindSpeed_IsbL-0005_RLatLon0.09_PT074H.grib2 2026-05-08 03:03 347K
20260508T00Z_MSC_RDPS_WindSpeed_IsbL-0010_RLatLon0.09_PT074H.grib2 2026-05-08 03:03 397K
20260508T00Z_MSC_RDPS_WindSpeed_IsbL-0020_RLatLon0.09_PT074H.grib2 2026-05-08 03:03 325K
20260508T00Z_MSC_RDPS_WindSpeed_IsbL-0030_RLatLon0.09_PT074H.grib2 2026-05-08 03:03 324K
20260508T00Z_MSC_RDPS_WindSpeed_IsbL-0050_RLatLon0.09_PT074H.grib2 2026-05-08 03:03 451K
20260508T00Z_MSC_RDPS_WindSpeed_IsbL-0100_RLatLon0.09_PT074H.grib2 2026-05-08 03:03 471K
20260508T00Z_MSC_RDPS_WindSpeed_IsbL-0150_RLatLon0.09_PT074H.grib2 2026-05-08 03:03 373K
20260508T00Z_MSC_RDPS_WindSpeed_IsbL-0175_RLatLon0.09_PT074H.grib2 2026-05-08 03:03 420K
20260508T00Z_MSC_RDPS_WindSpeed_IsbL-0200_RLatLon0.09_PT074H.grib2 2026-05-08 03:03 437K
20260508T00Z_MSC_RDPS_WindSpeed_IsbL-0225_RLatLon0.09_PT074H.grib2 2026-05-08 03:03 447K
20260508T00Z_MSC_RDPS_WindSpeed_IsbL-0250_RLatLon0.09_PT074H.grib2 2026-05-08 03:03 452K
20260508T00Z_MSC_RDPS_WindSpeed_IsbL-0275_RLatLon0.09_PT074H.grib2 2026-05-08 03:03 472K
20260508T00Z_MSC_RDPS_WindSpeed_IsbL-0300_RLatLon0.09_PT074H.grib2 2026-05-08 03:03 469K
20260508T00Z_MSC_RDPS_WindSpeed_IsbL-0350_RLatLon0.09_PT074H.grib2 2026-05-08 03:03 478K
20260508T00Z_MSC_RDPS_WindSpeed_IsbL-0400_RLatLon0.09_PT074H.grib2 2026-05-08 03:03 481K
20260508T00Z_MSC_RDPS_WindSpeed_IsbL-0450_RLatLon0.09_PT074H.grib2 2026-05-08 03:03 468K
20260508T00Z_MSC_RDPS_WindSpeed_IsbL-0500_RLatLon0.09_PT074H.grib2 2026-05-08 03:03 471K
20260508T00Z_MSC_RDPS_WindSpeed_IsbL-0550_RLatLon0.09_PT074H.grib2 2026-05-08 03:03 469K
20260508T00Z_MSC_RDPS_WindSpeed_IsbL-0600_RLatLon0.09_PT074H.grib2 2026-05-08 03:03 596K
20260508T00Z_MSC_RDPS_WindSpeed_IsbL-0650_RLatLon0.09_PT074H.grib2 2026-05-08 03:03 614K
20260508T00Z_MSC_RDPS_WindSpeed_IsbL-0700_RLatLon0.09_PT074H.grib2 2026-05-08 03:03 636K
20260508T00Z_MSC_RDPS_WindSpeed_IsbL-0750_RLatLon0.09_PT074H.grib2 2026-05-08 03:03 709K
20260508T00Z_MSC_RDPS_WindSpeed_IsbL-0800_RLatLon0.09_PT074H.grib2 2026-05-08 03:03 754K
20260508T00Z_MSC_RDPS_WindSpeed_IsbL-0850_RLatLon0.09_PT074H.grib2 2026-05-08 03:03 810K
20260508T00Z_MSC_RDPS_WindSpeed_IsbL-0875_RLatLon0.09_PT074H.grib2 2026-05-08 03:03 829K
20260508T00Z_MSC_RDPS_WindSpeed_IsbL-0900_RLatLon0.09_PT074H.grib2 2026-05-08 03:03 844K
20260508T00Z_MSC_RDPS_WindSpeed_IsbL-0925_RLatLon0.09_PT074H.grib2 2026-05-08 03:03 857K
20260508T00Z_MSC_RDPS_WindSpeed_IsbL-0950_RLatLon0.09_PT074H.grib2 2026-05-08 03:03 860K
20260508T00Z_MSC_RDPS_WindSpeed_IsbL-0970_RLatLon0.09_PT074H.grib2 2026-05-08 03:03 858K
20260508T00Z_MSC_RDPS_WindSpeed_IsbL-0985_RLatLon0.09_PT074H.grib2 2026-05-08 03:03 851K
20260508T00Z_MSC_RDPS_WindSpeed_IsbL-1000_RLatLon0.09_PT074H.grib2 2026-05-08 03:03 843K
20260508T00Z_MSC_RDPS_WindSpeed_IsbL-1015_RLatLon0.09_PT074H.grib2 2026-05-08 03:03 834K
20260508T00Z_MSC_RDPS_WindU_AGL-10m_RLatLon0.09_PT074H.grib2 2026-05-08 03:03 430K
20260508T00Z_MSC_RDPS_WindU_AGL-120m_RLatLon0.09_PT074H.grib2 2026-05-08 03:03 533K
20260508T00Z_MSC_RDPS_WindU_AGL-40m_RLatLon0.09_PT074H.grib2 2026-05-08 03:03 536K
20260508T00Z_MSC_RDPS_WindU_AGL-80m_RLatLon0.09_PT074H.grib2 2026-05-08 03:03 535K
20260508T00Z_MSC_RDPS_WindU_IsbL-0001_RLatLon0.09_PT074H.grib2 2026-05-08 03:03 293K
20260508T00Z_MSC_RDPS_WindU_IsbL-0005_RLatLon0.09_PT074H.grib2 2026-05-08 03:03 288K
20260508T00Z_MSC_RDPS_WindU_IsbL-0010_RLatLon0.09_PT074H.grib2 2026-05-08 03:03 298K
20260508T00Z_MSC_RDPS_WindU_IsbL-0020_RLatLon0.09_PT074H.grib2 2026-05-08 03:03 354K
20260508T00Z_MSC_RDPS_WindU_IsbL-0030_RLatLon0.09_PT074H.grib2 2026-05-08 03:03 315K
20260508T00Z_MSC_RDPS_WindU_IsbL-0050_RLatLon0.09_PT074H.grib2 2026-05-08 03:03 340K
20260508T00Z_MSC_RDPS_WindU_IsbL-0100_RLatLon0.09_PT074H.grib2 2026-05-08 03:03 427K
20260508T00Z_MSC_RDPS_WindU_IsbL-0150_RLatLon0.09_PT074H.grib2 2026-05-08 03:03 391K
20260508T00Z_MSC_RDPS_WindU_IsbL-0175_RLatLon0.09_PT074H.grib2 2026-05-08 03:03 414K
20260508T00Z_MSC_RDPS_WindU_IsbL-0200_RLatLon0.09_PT074H.grib2 2026-05-08 03:03 430K
20260508T00Z_MSC_RDPS_WindU_IsbL-0225_RLatLon0.09_PT074H.grib2 2026-05-08 03:03 440K
20260508T00Z_MSC_RDPS_WindU_IsbL-0250_RLatLon0.09_PT074H.grib2 2026-05-08 03:03 442K
20260508T00Z_MSC_RDPS_WindU_IsbL-0275_RLatLon0.09_PT074H.grib2 2026-05-08 03:03 359K
20260508T00Z_MSC_RDPS_WindU_IsbL-0300_RLatLon0.09_PT074H.grib2 2026-05-08 03:03 456K
20260508T00Z_MSC_RDPS_WindU_IsbL-0350_RLatLon0.09_PT074H.grib2 2026-05-08 03:03 466K
20260508T00Z_MSC_RDPS_WindU_IsbL-0400_RLatLon0.09_PT074H.grib2 2026-05-08 03:03 470K
20260508T00Z_MSC_RDPS_WindU_IsbL-0450_RLatLon0.09_PT074H.grib2 2026-05-08 03:03 473K
20260508T00Z_MSC_RDPS_WindU_IsbL-0500_RLatLon0.09_PT074H.grib2 2026-05-08 03:03 477K
20260508T00Z_MSC_RDPS_WindU_IsbL-0550_RLatLon0.09_PT074H.grib2 2026-05-08 03:03 458K
20260508T00Z_MSC_RDPS_WindU_IsbL-0600_RLatLon0.09_PT074H.grib2 2026-05-08 03:03 468K
20260508T00Z_MSC_RDPS_WindU_IsbL-0650_RLatLon0.09_PT074H.grib2 2026-05-08 03:03 484K
20260508T00Z_MSC_RDPS_WindU_IsbL-0700_RLatLon0.09_PT074H.grib2 2026-05-08 03:03 505K
20260508T00Z_MSC_RDPS_WindU_IsbL-0750_RLatLon0.09_PT074H.grib2 2026-05-08 03:03 531K
20260508T00Z_MSC_RDPS_WindU_IsbL-0800_RLatLon0.09_PT074H.grib2 2026-05-08 03:03 570K
20260508T00Z_MSC_RDPS_WindU_IsbL-0850_RLatLon0.09_PT074H.grib2 2026-05-08 03:03 619K
20260508T00Z_MSC_RDPS_WindU_IsbL-0875_RLatLon0.09_PT074H.grib2 2026-05-08 03:03 635K
20260508T00Z_MSC_RDPS_WindU_IsbL-0900_RLatLon0.09_PT074H.grib2 2026-05-08 03:03 646K
20260508T00Z_MSC_RDPS_WindU_IsbL-0925_RLatLon0.09_PT074H.grib2 2026-05-08 03:03 655K
20260508T00Z_MSC_RDPS_WindU_IsbL-0950_RLatLon0.09_PT074H.grib2 2026-05-08 03:03 655K
20260508T00Z_MSC_RDPS_WindU_IsbL-0970_RLatLon0.09_PT074H.grib2 2026-05-08 03:03 650K
20260508T00Z_MSC_RDPS_WindU_IsbL-0985_RLatLon0.09_PT074H.grib2 2026-05-08 03:03 785K
20260508T00Z_MSC_RDPS_WindU_IsbL-1000_RLatLon0.09_PT074H.grib2 2026-05-08 03:03 779K
20260508T00Z_MSC_RDPS_WindU_IsbL-1015_RLatLon0.09_PT074H.grib2 2026-05-08 03:03 772K
20260508T00Z_MSC_RDPS_WindV_AGL-10m_RLatLon0.09_PT074H.grib2 2026-05-08 03:03 426K
20260508T00Z_MSC_RDPS_WindV_AGL-120m_RLatLon0.09_PT074H.grib2 2026-05-08 03:03 529K
20260508T00Z_MSC_RDPS_WindV_AGL-40m_RLatLon0.09_PT074H.grib2 2026-05-08 03:03 531K
20260508T00Z_MSC_RDPS_WindV_AGL-80m_RLatLon0.09_PT074H.grib2 2026-05-08 03:03 530K
20260508T00Z_MSC_RDPS_WindV_IsbL-0001_RLatLon0.09_PT074H.grib2 2026-05-08 03:03 295K
20260508T00Z_MSC_RDPS_WindV_IsbL-0005_RLatLon0.09_PT074H.grib2 2026-05-08 03:03 288K
20260508T00Z_MSC_RDPS_WindV_IsbL-0010_RLatLon0.09_PT074H.grib2 2026-05-08 03:03 298K
20260508T00Z_MSC_RDPS_WindV_IsbL-0020_RLatLon0.09_PT074H.grib2 2026-05-08 03:03 316K
20260508T00Z_MSC_RDPS_WindV_IsbL-0030_RLatLon0.09_PT074H.grib2 2026-05-08 03:03 315K
20260508T00Z_MSC_RDPS_WindV_IsbL-0050_RLatLon0.09_PT074H.grib2 2026-05-08 03:03 339K
20260508T00Z_MSC_RDPS_WindV_IsbL-0100_RLatLon0.09_PT074H.grib2 2026-05-08 03:03 425K
20260508T00Z_MSC_RDPS_WindV_IsbL-0150_RLatLon0.09_PT074H.grib2 2026-05-08 03:03 390K
20260508T00Z_MSC_RDPS_WindV_IsbL-0175_RLatLon0.09_PT074H.grib2 2026-05-08 03:03 413K
20260508T00Z_MSC_RDPS_WindV_IsbL-0200_RLatLon0.09_PT074H.grib2 2026-05-08 03:03 332K
20260508T00Z_MSC_RDPS_WindV_IsbL-0225_RLatLon0.09_PT074H.grib2 2026-05-08 03:03 338K
20260508T00Z_MSC_RDPS_WindV_IsbL-0250_RLatLon0.09_PT074H.grib2 2026-05-08 03:03 366K
20260508T00Z_MSC_RDPS_WindV_IsbL-0275_RLatLon0.09_PT074H.grib2 2026-05-08 03:03 381K
20260508T00Z_MSC_RDPS_WindV_IsbL-0300_RLatLon0.09_PT074H.grib2 2026-05-08 03:03 377K
20260508T00Z_MSC_RDPS_WindV_IsbL-0350_RLatLon0.09_PT074H.grib2 2026-05-08 03:03 360K
20260508T00Z_MSC_RDPS_WindV_IsbL-0400_RLatLon0.09_PT074H.grib2 2026-05-08 03:03 466K
20260508T00Z_MSC_RDPS_WindV_IsbL-0450_RLatLon0.09_PT074H.grib2 2026-05-08 03:03 469K
20260508T00Z_MSC_RDPS_WindV_IsbL-0500_RLatLon0.09_PT074H.grib2 2026-05-08 03:03 472K
20260508T00Z_MSC_RDPS_WindV_IsbL-0550_RLatLon0.09_PT074H.grib2 2026-05-08 03:03 472K
20260508T00Z_MSC_RDPS_WindV_IsbL-0600_RLatLon0.09_PT074H.grib2 2026-05-08 03:03 480K
20260508T00Z_MSC_RDPS_WindV_IsbL-0650_RLatLon0.09_PT074H.grib2 2026-05-08 03:03 479K
20260508T00Z_MSC_RDPS_WindV_IsbL-0700_RLatLon0.09_PT074H.grib2 2026-05-08 03:03 500K
20260508T00Z_MSC_RDPS_WindV_IsbL-0750_RLatLon0.09_PT074H.grib2 2026-05-08 03:03 524K
20260508T00Z_MSC_RDPS_WindV_IsbL-0800_RLatLon0.09_PT074H.grib2 2026-05-08 03:03 563K
20260508T00Z_MSC_RDPS_WindV_IsbL-0850_RLatLon0.09_PT074H.grib2 2026-05-08 03:03 613K
20260508T00Z_MSC_RDPS_WindV_IsbL-0875_RLatLon0.09_PT074H.grib2 2026-05-08 03:03 629K
20260508T00Z_MSC_RDPS_WindV_IsbL-0900_RLatLon0.09_PT074H.grib2 2026-05-08 03:03 641K
20260508T00Z_MSC_RDPS_WindV_IsbL-0925_RLatLon0.09_PT074H.grib2 2026-05-08 03:03 651K
20260508T00Z_MSC_RDPS_WindV_IsbL-0950_RLatLon0.09_PT074H.grib2 2026-05-08 03:03 650K
20260508T00Z_MSC_RDPS_WindV_IsbL-0970_RLatLon0.09_PT074H.grib2 2026-05-08 03:03 786K
20260508T00Z_MSC_RDPS_WindV_IsbL-0985_RLatLon0.09_PT074H.grib2 2026-05-08 03:03 781K
20260508T00Z_MSC_RDPS_WindV_IsbL-1000_RLatLon0.09_PT074H.grib2 2026-05-08 03:03 821K
20260508T00Z_MSC_RDPS_WindV_IsbL-1015_RLatLon0.09_PT074H.grib2 2026-05-08 03:03 814K